Skip Page Navigation
NASA JPL Caltech
NASA Logo - Jet Propulsion Laboratory + View the NASA Portal
+ Center for Near-Earth Object Studies
JPL Home Earth Solar System Stars & Galaxies Technology
JPL Solar System Dynamics
BODIES ORBITS EPHEMERIDES TOOLS PHYSICAL DATA DISCOVERY FAQ SITE MAP
IMPORTANT: The SSD Announcement email list is now available. Major changes are coming in the near future, including possible hostname and/or URL changes. To be notified of such changes, subscribe to this email list.

Please visit this page for more details.


JPL Small-Body Database Browser
Search: [ help ]  
413825 (2006 QN147)
Classification: Main-belt Asteroid          SPK-ID: 2413825
Ephemeris | Orbit Diagram | Orbital Elements | Mission Design | Physical Parameters | Discovery Circumstances ]

[ show orbit diagram ]
Orbital Elements at Epoch 2459000.5 (2020-May-31.0) TDB
Reference: JPL 11 (heliocentric ecliptic J2000)
 Element Value Uncertainty (1-sigma)   Units 
e .1754357554656918 2.154e-07  
a 2.459276013333657 4.0336e-08 au
q 2.027831068035812 5.1349e-07 au
i 4.687039046461282 6.2297e-06 deg
node 152.7806596649512 0.00014227 deg
peri 259.8508287705814 0.00014302 deg
M 157.7296642588527 2.3464e-05 deg
tp 2458383.308102748667
(2018-Sep-21.80810275)
8.5506e-05 TDB
period 1408.670233684401
3.86
3.4657e-05
9.489e-08
d
yr
n .2555601668805154 6.2874e-09 deg/d
Q 2.890720958631502 4.7412e-08 au
  Orbit Determination Parameters
   # obs. used (total)      124  
   data-arc span      7387 days (20.22 yr)  
   first obs. used      2000-02-06  
   last obs. used      2020-04-28  
   planetary ephem.      DE431  
   SB-pert. ephem.      SB431-N16  
   condition code      0  
   norm. resid. RMS      .56131  
   source      ORB  
   producer      Otto Matic  
   solution date      2020-May-22 02:08:36  

Additional Information
 Earth MOID = 1.04498 au 
 Jupiter MOID = 2.4827 au 
 T_jup = 3.465 
[ show covariance matrix ]

Ephemeris | Orbit Diagram | Orbital Elements | Mission Design | Physical Parameters | Discovery Circumstances ]

Physical Parameter Table
Parameter Symbol Value Units Sigma Reference Notes
absolute magnitude H 17.7   n/a MPO472165  

413825 (2006 QN147)          Discovered 2006-Aug-18 by Spacewatch at Kitt Peak
Reference: Last Updated: 2014-11-10

Alternate Designations
 2006 QN147 = 2010 TA131 
Ephemeris | Orbit Diagram | Orbital Elements | Mission Design | Physical Parameters | Discovery Circumstances ]
ABOUT SSD CREDITS/AWARDS PRIVACY/COPYRIGHT GLOSSARY LINKS
FirstGov 2020-Jun-01 03:43 UT
(server date/time)  
NASA Home Page
Site Manager:   Ryan S. Park
Webmaster  Alan B. Chamberlin